This is the latest recevied weather packets stored in our database for station/object W5CDN. If no packets are shown the sender has not sent any weather packets the latest 10 day(s).
| Time | Temp. | Humidity | Pressure | Rain* | Wind** | Luminosity | Snow |
|---|---|---|---|---|---|---|---|
| 1787581590 | 30.56° C | 55% | 1014.2 hPa | 0 mm | - | - | - |
| 1787581290 | 29.44° C | 56% | 1014.2 hPa | 0 mm | - | - | - |
| 1787580990 | 30° C | 57% | 1014.2 hPa | 0 mm | - | - | - |
| 1787580690 | 30° C | 57% | 1014.1 hPa | 0 mm | - | - | - |
| 1787580390 | 29.44° C | 58% | 1014.1 hPa | 0 mm | - | - | - |
| 1787580090 | 29.44° C | 58% | 1014.2 hPa | 0 mm | - | - | - |
| 1787579790 | 29.44° C | 60% | 1014.1 hPa | 0 mm | - | - | - |
| 1787579490 | 29.44° C | 60% | 1014 hPa | 0 mm | - | - | - |
| 1787579190 | 28.89° C | 62% | 1014 hPa | 0 mm | - | - | - |
| 1787578890 | 28.89° C | 63% | 1014.2 hPa | 0 mm | - | - | - |
| 1787578590 | 28.33° C | 63% | 1013.9 hPa | 0 mm | - | - | - |
| 1787578290 | 28.33° C | 64% | 1013.9 hPa | 0 mm | - | - | - |
| 1787577990 | 28.33° C | 65% | 1014.3 hPa | 0 mm | - | - | - |
| 1787577690 | 28.33° C | 66% | 1014.2 hPa | 0 mm | - | - | - |
| 1787577390 | 27.78° C | 67% | 1014.1 hPa | 0 mm | - | - | - |
| 1787577090 | 27.78° C | 68% | 1014.1 hPa | 0 mm | - | - | - |
| 1787576790 | 27.22° C | 69% | 1014.2 hPa | 0 mm | - | - | - |
| 1787576490 | 27.22° C | 70% | 1014 hPa | 0 mm | - | - | - |
| 1787576190 | 27.22° C | 71% | 1013.8 hPa | 0 mm | - | - | - |
| 1787575890 | 27.22° C | 71% | 1013.8 hPa | 0 mm | - | - | - |
| 1787575590 | 26.67° C | 72% | 1014 hPa | 0 mm | - | - | - |
| 1787575290 | 26.67° C | 72% | 1013.9 hPa | 0 mm | - | - | - |
| 1787574990 | 26.67° C | 73% | 1013.8 hPa | 0 mm | - | - | - |
| 1787574690 | 26.67° C | 72% | 1013.6 hPa | 0 mm | - | - | - |
| 1787574390 | 26.67° C | 73% | 1013.6 hPa | 0 mm | - | - | - |
* Rain latest hour (hover to see other rain measurements)
** Current wind speed in m/s (hover to see current wind gust speed)